Location: Coed Ely
(51.5661°N, 3.4150°W)
Time: 01:46:52
(UTC+00:00)

Meteor 2-13 Rocket - Pass Details

Date: 28 January 2021
Orbit: 936 x 957 km, 82.5° (Epoch: 28 February)

Event Time Altitude Azimuth Distance (km) Brightness Sun altitude
Rises 17:58:09 0° 187° (S) 3,612 7.8 -9.7°
Reaches altitude 10° 18:00:37 10° 188° (S) 2,674 7.1 -10.1°
Maximum altitude 18:06:45 89° 101° (E) 964 4.5 -11.0°
Drops below altitude 10° 18:12:58 10° 11° (N) 2,702 6.6 -11.9°
Sets 18:15:29 0° 11° (NNE) 3,652 7.3 -12.3°
